Istanbul, Turkey

12:56 AM +03 on February 21, 2018 (GMT +0300)
Ataturk

Weather History for LTBA - March, 2013

Change the Weather History Date:

Sunday, March 24, 2013

  Actual Average Record
Temperature  
Mean Temperature 48 °F -  
Max Temperature 60 °F 57 °F 69 °F (2004)
Min Temperature 37 °F 44 °F 26 °F (2003)
Degree Days  
Heating Degree Days 16    
Moisture  
Dew Point 36 °F    
Average Humidity 62    
Maximum Humidity 93    
Minimum Humidity 30    
Precipitation  
Precipitation 0.00 in - - ()
Sea Level Pressure  
Sea Level Pressure 30.04 in    
Wind  
Wind Speed 4 mph ()    
Max Wind Speed 10 mph    
Max Gust Speed -    
Visibility 3.4 miles    
Events      
Averages and records for this station are not official NWS values.
T = Trace of Precipitation, MM = Missing Value Source: Averaged Metar Reports

Daily Weather History Graph

Daily Weather History Graph

Search for Another Location

Airport or City:

Trip Planner

Search our weather history database for the weather conditions in past years. The results will help you decide how hot, cold, wet, or windy it might be!

Date:

Astronomy

Mar. 24, 2013 Rise Set
Actual Time 6:01 AM EET 6:21 PM EET
Civil Twilight 5:34 AM EET 6:48 PM EET
Nautical Twilight 5:01 AM EET 7:20 PM EET
Astronomical Twilight 4:28 AM EET 7:54 PM EET
Moon 3:27 PM EET (3/24) 4:02 AM EET (3/24)
Length of Visible Light 13h 14m
Length of Day
12h 19m
Waxing Gibbous, 90% of the Moon is Illuminated
Mar 24
Waxing Gibbous
Mar 27
Full
Apr 3
Last Quarter
Apr 10
New
Apr 18
First Quarter

Hourly Weather History & Observations

Time (EET) Temp. Windchill Dew Point Humidity Pressure Visibility Wind Dir Wind Speed Gust Speed Precip Events Conditions
12:20 AM 41.0 °F 39.0 °F 35.6 °F 81% 29.98 in 3.7 mi NNW 3.5 mph - N/A   Unknown
12:50 AM 39.2 °F 35.0 °F 33.8 °F 81% 30.01 in 3.7 mi NNW 5.8 mph - N/A   Unknown
1:20 AM 41.0 °F 38.0 °F 33.8 °F 76% 30.01 in 3.7 mi North 4.6 mph - N/A   Unknown
1:50 AM 39.2 °F - 32.0 °F 75% 30.01 in 3.7 mi Calm Calm - N/A   Unknown
2:00 AM 40 °F - 33 °F 69% 30.02 in 4 mi Calm Calm - -   Mist
2:20 AM 42.8 °F 41.1 °F 37.4 °F 81% 30.01 in 2.5 mi SSE 3.5 mph - N/A   Mist
2:50 AM 41.0 °F - 35.6 °F 81% 30.01 in 2.5 mi Calm Calm - N/A   Mist
3:20 AM 39.2 °F - 33.8 °F 81% 30.01 in 3.7 mi Calm Calm - N/A   Unknown
3:50 AM 39.2 °F - 33.8 °F 81% 30.01 in 2.5 mi North 2.3 mph - N/A   Mist
4:20 AM 39.2 °F 35.0 °F 33.8 °F 81% 30.01 in 2.5 mi North 5.8 mph - N/A   Mist
4:50 AM 39.2 °F 33.0 °F 33.8 °F 81% 30.01 in 2.5 mi North 9.2 mph - N/A   Mist
5:20 AM 39.2 °F 34.2 °F 35.6 °F 87% 30.01 in 2.5 mi North 6.9 mph - N/A   Mist
5:50 AM 39.2 °F 35.9 °F 35.6 °F 87% 30.04 in 2.5 mi North 4.6 mph - N/A   Mist
6:20 AM 39.2 °F 37.0 °F 37.4 °F 93% 30.04 in 1.9 mi NE 3.5 mph - N/A   Mist
6:50 AM 39.2 °F 34.2 °F 35.6 °F 87% 30.04 in 1.6 mi NNW 6.9 mph - N/A   Mist
7:20 AM 42.8 °F 38.6 °F 37.4 °F 81% 30.06 in 2.5 mi NNW 6.9 mph - N/A   Mist
7:50 AM 44.6 °F 42.2 °F 39.2 °F 81% 30.06 in 2.5 mi North 4.6 mph - N/A   Mist
8:00 AM 45 °F - 39 °F 71% 30.07 in 2 mi North 4.6 mph - -   Mist
8:20 AM 48.2 °F - 39.2 °F 71% 30.06 in 2.8 mi Variable 3.5 mph - N/A   Mist
8:50 AM 50.0 °F - 41.0 °F 71% 30.06 in 3.7 mi Variable 2.3 mph - N/A   Unknown
9:20 AM 50.0 °F - 39.2 °F 66% 30.09 in 3.7 mi SSW 3.5 mph - N/A   Unknown
9:50 AM 50.0 °F - 39.2 °F 66% 30.09 in 3.7 mi SW 3.5 mph - N/A   Unknown
10:20 AM 51.8 °F - 41.0 °F 67% 30.09 in - SSW 3.5 mph - N/A   Clear
10:50 AM 51.8 °F - 41.0 °F 67% 30.09 in - SSW 5.8 mph - N/A   Clear
11:20 AM 51.8 °F - 41.0 °F 67% 30.09 in - South 6.9 mph - N/A   Clear
11:50 AM 53.6 °F - 41.0 °F 62% 30.09 in - SSW 5.8 mph - N/A   Clear
12:20 PM 51.8 °F - 39.2 °F 62% 30.06 in - WSW 4.6 mph - N/A   Clear
12:50 PM 53.6 °F - 37.4 °F 54% 30.06 in - SW 3.5 mph - N/A   Clear
1:20 PM 53.6 °F - 35.6 °F 51% 30.06 in - SSW 3.5 mph - N/A   Clear
1:50 PM 55.4 °F - 32.0 °F 41% 30.06 in - Variable 2.3 mph - N/A   Clear
2:00 PM 56 °F - 33 °F 30% 30.08 in 12 mi WSW 2.3 mph - -   Partly Cloudy
2:20 PM 57.2 °F - 33.8 °F 41% 30.06 in - Variable 2.3 mph - N/A   Clear
2:50 PM 57.2 °F - 33.8 °F 41% 30.04 in - South 3.5 mph - N/A   Clear
3:20 PM 59.0 °F - 35.6 °F 42% 30.04 in - Variable 2.3 mph - N/A   Clear
3:50 PM 59.0 °F - 33.8 °F 39% 30.04 in - Variable 2.3 mph - N/A   Clear
4:20 PM 60.8 °F - 35.6 °F 39% 30.04 in - Variable 2.3 mph - N/A   Clear
4:50 PM 55.4 °F - 35.6 °F 47% 30.04 in - SE 5.8 mph - N/A   Clear
5:20 PM 53.6 °F - 37.4 °F 54% 30.01 in - ESE 5.8 mph - N/A   Clear
5:50 PM 55.4 °F - 35.6 °F 47% 30.01 in - SE 5.8 mph - N/A   Clear
6:20 PM 53.6 °F - 35.6 °F 51% 30.01 in - East 4.6 mph - N/A   Clear
6:50 PM 55.4 °F - 33.8 °F 44% 30.01 in - ENE 4.6 mph - N/A   Clear
7:20 PM 57.2 °F - 33.8 °F 41% 30.04 in - Variable 5.8 mph - N/A   Clear
7:50 PM 57.2 °F - 37.4 °F 48% 30.04 in - NNE 4.6 mph - N/A   Clear
8:00 PM 56 °F - 36 °F 35% 30.04 in 6 mi NNE 4.6 mph - -   Clear
8:20 PM 55.4 °F - 37.4 °F 51% 30.04 in - NE 4.6 mph - N/A   Clear
8:50 PM 55.4 °F - 37.4 °F 51% 30.04 in - East 6.9 mph - N/A   Clear
9:20 PM 55.4 °F - 37.4 °F 51% 30.04 in - East 5.8 mph - N/A   Clear
9:50 PM 55.4 °F - 37.4 °F 51% 30.04 in - ENE 5.8 mph - N/A   Clear
10:20 PM 53.6 °F - 37.4 °F 54% 30.04 in - NNE 3.5 mph - N/A   Clear
10:50 PM 53.6 °F - 37.4 °F 54% 30.04 in - NNE 3.5 mph - N/A   Clear
11:20 PM 50.0 °F - 37.4 °F 62% 30.04 in - North 6.9 mph - N/A   Clear
11:50 PM 48.2 °F - 39.2 °F 71% 30.04 in - North 10.4 mph - N/A   Clear